TimeEDT,TemperatureF,Dew PointF,Humidity,Sea Level PressureIn,VisibilityMPH,Wind Direction,Wind SpeedMPH,Gust SpeedMPH,PrecipitationIn,Events,Conditions,WindDirDegrees,DateUTC
12:28 AM,73.9,68.0,82,29.94,10.0,South,16.1,-,N/A,,Mostly Cloudy,180,2014-05-01 04:28:00
12:56 AM,73.9,68.0,82,29.94,10.0,South,13.8,23.0,N/A,,Scattered Clouds,170,2014-05-01 04:56:00
1:05 AM,73.9,68.0,82,29.93,10.0,South,12.7,-,N/A,,Mostly Cloudy,180,2014-05-01 05:05:00
1:56 AM,73.9,68.0,82,29.93,10.0,South,13.8,19.6,N/A,,Overcast,180,2014-05-01 05:56:00
2:20 AM,73.9,68.0,82,29.92,10.0,South,12.7,17.3,N/A,,Overcast,190,2014-05-01 06:20:00
2:56 AM,73.9,69.1,85,29.92,10.0,South,10.4,-,N/A,,Overcast,180,2014-05-01 06:56:00
3:56 AM,73.9,68.0,82,29.90,10.0,South,10.4,-,N/A,,Scattered Clouds,180,2014-05-01 07:56:00
4:12 AM,73.9,68.0,82,29.89,10.0,South,9.2,-,N/A,,Mostly Cloudy,180,2014-05-01 08:12:00
4:43 AM,73.0,68.0,84,29.89,10.0,South,9.2,-,N/A,,Partly Cloudy,190,2014-05-01 08:43:00
4:56 AM,73.9,68.0,82,29.90,10.0,Variable,5.8,-,N/A,,Scattered Clouds,0,2014-05-01 08:56:00
5:07 AM,73.9,68.0,82,29.89,10.0,SSW,6.9,-,N/A,,Mostly Cloudy,200,2014-05-01 09:07:00
5:56 AM,73.0,68.0,84,29.90,10.0,SSW,6.9,16.1,N/A,,Partly Cloudy,200,2014-05-01 09:56:00
6:20 AM,73.0,68.0,84,29.90,10.0,SSW,8.1,-,N/A,,Mostly Cloudy,200,2014-05-01 10:20:00
6:56 AM,73.0,68.0,84,29.91,10.0,South,9.2,-,N/A,,Scattered Clouds,190,2014-05-01 10:56:00
7:22 AM,73.0,68.0,84,29.91,10.0,SSW,9.2,-,N/A,,Partly Cloudy,200,2014-05-01 11:22:00
7:56 AM,75.0,68.0,79,29.90,10.0,SSW,9.2,18.4,N/A,,Scattered Clouds,200,2014-05-01 11:56:00
8:56 AM,77.0,68.0,74,29.90,10.0,SSW,10.4,16.1,N/A,,Overcast,210,2014-05-01 12:56:00
9:56 AM,80.1,66.9,64,29.89,10.0,Variable,6.9,19.6,N/A,,Scattered Clouds,0,2014-05-01 13:56:00
10:56 AM,80.1,64.9,60,29.88,10.0,SSW,9.2,17.3,N/A,,Overcast,210,2014-05-01 14:56:00
11:56 AM,84.9,66.0,53,29.86,10.0,North,-9999.0,-,N/A,,Clear,0,2014-05-01 15:56:00
12:56 PM,84.0,64.9,53,29.85,10.0,SSW,11.5,23.0,N/A,,Scattered Clouds,200,2014-05-01 16:56:00
1:56 PM,82.9,64.9,54,29.84,10.0,SSW,8.1,19.6,N/A,,Scattered Clouds,210,2014-05-01 17:56:00
2:56 PM,82.0,66.0,58,29.83,10.0,SSW,11.5,26.5,0.00,,Mostly Cloudy,200,2014-05-01 18:56:00
3:56 PM,79.0,62.1,56,29.83,10.0,SSW,13.8,24.2,N/A,,Overcast,200,2014-05-01 19:56:00
4:56 PM,77.0,62.1,60,29.82,10.0,SSW,11.5,20.7,N/A,,Clear,200,2014-05-01 20:56:00
5:56 PM,78.1,62.1,58,29.81,10.0,SSW,10.4,18.4,N/A,,Partly Cloudy,200,2014-05-01 21:56:00
6:56 PM,75.9,63.0,64,29.80,10.0,SSW,10.4,17.3,N/A,,Mostly Cloudy,200,2014-05-01 22:56:00
7:56 PM,75.0,64.9,71,29.80,10.0,SSW,8.1,19.6,N/A,,Clear,200,2014-05-01 23:56:00
8:56 PM,75.0,66.0,73,29.79,10.0,South,10.4,-,N/A,,Clear,190,2014-05-02 00:56:00
9:56 PM,73.9,66.0,76,29.79,10.0,South,8.1,-,N/A,,Clear,190,2014-05-02 01:56:00
10:56 PM,73.9,66.0,76,29.79,10.0,Variable,5.8,-,N/A,,Mostly Cloudy,0,2014-05-02 02:56:00
11:56 PM,73.0,64.9,76,29.79,10.0,Variable,4.6,-,N/A,,Mostly Cloudy,0,2014-05-02 03:56:00